{"data":{"norad_id":60055,"intl_designator":"2024-112T","name":"STARLINK-31788","alt_names":[],"object_type":"PAYLOAD","status":"ACTIVE","operator":null,"country":"US","launch_date":"2024-06-08","launch_site_code":"AFWTR","launch_vehicle":null,"mission":null,"orbit_class":"UNKNOWN","rcs_meters":null,"size_class":null,"mass_kg":null,"dimensions":null,"purposes":["comms"],"wikipedia_slug":null,"has_3d_model":false,"image_url":null,"decayed_at":null,"tle_current":{"epoch":"2026-05-25T02:25:40.378656Z","epoch_age_seconds":73215,"freshness":"FRESH","line1":"1 60055U 24112T   26145.10116179  .00000691  00000+0  35478-4 0  9996","line2":"2 60055  53.1610  83.2047 0001424  85.4749 274.6415 15.30192870110294","mean_motion":15.3019287,"eccentricity":0.0001424,"inclination_deg":53.161,"raan_deg":83.2047,"arg_perigee_deg":85.4749,"mean_anomaly_deg":274.6415,"bstar":3.5478e-5,"rev_number":11029,"period_min":94.105784194381,"perigee_km":474.26043803056,"apogee_km":476.21227876303,"semimajor_km":6853.3733583968,"source":"CELESTRAK","updated_at":"2026-05-25T13:38:19.155660Z"}}}